www.pogodaiklimat.ru

Погода и климат >> Архив погоды >> Норвегия >> Сволваер аэропорт


ПОГОДА в Сволваер аэропорту

  • Прогноз погоды в Сволваер аэропорту
  • Монитор погоды в Сволваер аэропорту

АРХИВ ПОГОДЫ в Сволваер аэропорту

Время (UTC), дата Ветер
(напр.,м/с)
 
Видим.   Явления Облачность Т
(С)
Тd
(С)
f
(%)
Тe
(С)
Тes
(С)
Комфортность P
(гПа)
Po
(гПа)
Тmin
(С)
Tmax
(С)
R
(мм)
R24
(мм)
S
(см)
07 11.02 СЗ 4
{12}
н/о н/о +0.9 -1.8 82 -4 -4 988.9 987.8
08 11.02 СЗ 9
{16}
н/о н/о +1.1 -4.5 66 -6 -6 989.2 988.1
09 11.02 СЗ 7
{17}
н/о н/о +1.9 -5.0 60 -4 -4 990.8 989.7
10 11.02 СЗ 5
{16}
н/о н/о +2.4 -5.4 56 -2 -2 992.4 991.3
11 11.02 З 4
{12}
н/о н/о +0.7 -2.7 78 -4 -4 993.4 992.3
12 11.02 З 5
{17}
н/о н/о +0.1 -2.8 81 -6 -6 994.2 993.1
13 11.02 З 4
{13}
н/о н/о -0.2 -2.3 86 -6 -6 995.4 994.3
14 11.02 З 6
{10}
н/о н/о +0.2 -5.6 65 -6 -6 995.8 994.7
15 11.02 З 3
{7}
н/о н/о 0.0 -6.3 63 -4 -4 996.2 995.1
16 11.02 З 3
{8}
н/о н/о -0.1 -6.7 61 -4 -4 996.7 995.6
17 11.02 З 4
{7}
н/о н/о 0.0 -6.1 63 -5 -5 997.0 995.9
18 11.02 ЮЗ 6
{13}
н/о н/о -0.1 -4.7 71 -6 -6 997.4 996.3 -0.5 +3.2
19 11.02 З 4
{9}
н/о н/о -1.2 -2.7 90 -7 -7 997.8 996.7
20 11.02 ЮЗ 3
{5}
н/о н/о -1.4 -2.1 95 -7 -7 998.0 996.9
21 11.02 З 4
{14}
н/о н/о +0.7 -4.5 68 -4 -4 998.1 997.0
22 11.02 СЗ 8
{14}
н/о н/о +0.8 -5.2 64 -6 -6 998.8 997.7
23 11.02 СЗ 5
{12}
н/о н/о +0.9 -6.4 58 -4 -4 999.6 998.5
00 12.02 СЗ 6
{14}
н/о н/о +0.6 -7.8 53 -5 -5 1000.0 998.9
01 12.02 З 8
{16}
н/о н/о -0.2 -5.5 67 -7 -7 1000.3 999.2
02 12.02 З 7
{14}
н/о н/о -0.9 -4.8 75 -8 -8 1000.7 999.6
03 12.02 З 8
{13}
н/о н/о -0.3 -4.9 71 -8 -8 1000.5 999.4
04 12.02 З 7
{15}
н/о н/о -0.5 -3.9 78 -8 -8 1000.5 999.4
05 12.02 З 7
{14}
н/о н/о -0.5 -3.2 82 -8 -8 1001.2 1000.1
06 12.02 ЮЗ 8
{16}
н/о н/о -1.2 -2.2 93 -9 -9 1001.1 1000.0 -1.4 +1.1
07 12.02 З 8
{14}
н/о н/о -0.8 -1.7 94 -9 -9 1001.1 1000.0
08 12.02 З 8
{19}
н/о н/о +0.1 -2.4 83 -7 -7 1001.2 1000.1
09 12.02 З 8
{17}
н/о н/о -0.2 -1.6 90 -8 -8 1001.5 1000.4
10 12.02 ЮЗ 9
{21}
н/о н/о 0.0 -1.7 88 -8 -8 1002.4 1001.3
11 12.02 ЮЗ 8
{13}
н/о н/о -0.5 -1.1 96 -8 -8 1003.4 1002.3
12 12.02 З 7
{21}
н/о н/о +0.1 -3.3 78 -7 -7 1003.9 1002.7
13 12.02 З 7
{13}
н/о н/о +0.5 -5.1 66 -6 -6 1004.7 1003.6
14 12.02 З 7
{11}
н/о н/о -0.3 -4.9 71 -7 -7 1005.0 1003.9
15 12.02 ЮЗ 5
{9}
н/о н/о -0.7 -6.9 63 -7 -7 1005.0 1003.9
16 12.02 З 3
{7}
н/о н/о -1.2 -7.8 61 -6 -6 1004.8 1003.6
17 12.02 З 3
{8}
н/о н/о -2.3 -8.1 64 -7 -7 1004.3 1003.2
18 12.02 З 3
{13}
н/о н/о -1.9 -6.3 72 -7 -7 1003.4 1002.3 -2.3 +0.7
19 12.02 СЗ 1
{4}
н/о н/о -2.7 -7.0 72 -5 -5 1002.6 1001.5
20 12.02 С 3
{4}
н/о н/о -4.2 -7.5 78 -9 -9 1001.5 1000.4
21 12.02 С 3
{4}
н/о н/о -4.4 -7.7 78 -10 -10 1000.9 999.7
22 12.02 С 3
{4}
н/о н/о -4.5 -7.5 80 -10 -10 999.9 998.8
23 12.02
{4}
н/о н/о -4.3 -6.9 82 998.7 997.6
00 13.02 СВ 6
{8}
н/о н/о -1.8 -5.5 76 -9 -9 997.1 996.0
01 13.02 СВ 7
{9}
н/о н/о -1.5 -6.4 69 -9 -9 995.8 994.7
02 13.02 СВ 7
{9}
н/о н/о -1.2 -6.6 67 -8 -8 994.7 993.6
03 13.02 СВ 8
{11}
н/о н/о -1.3 -6.6 67 -9 -9 993.5 992.4
04 13.02 СВ 10
{14}
н/о н/о -1.6 -7.0 67 -10 -10 992.5 991.4
05 13.02 СВ 10
{14}
н/о н/о -1.4 -7.0 66 -10 -10 991.9 990.8
06 13.02 СВ 9
{14}
н/о н/о -1.0 -7.8 60 -9 -9 992.0 990.9 -5.0 -1.0
07 13.02 СВ 9
{14}
н/о н/о -0.3 -7.6 58 -8 -8 992.0 990.9
08 13.02 СВ 8
{12}
н/о н/о -0.1 -6.7 61 -7 -7 992.6 991.5
09 13.02 СВ 8
{12}
н/о н/о 0.0 -5.1 68 -7 -7 993.5 992.4
10 13.02 СВ 7
{11}
н/о н/о 0.0 -4.8 70 -7 -7 994.9 993.8
11 13.02
{8}
н/о н/о 0.0 -5.5 66 996.4 995.3
12 13.02 С 3
{14}
н/о н/о -1.2 -6.1 69 -6 -6 998.1 997.0
13 13.02 С 3
{4}
н/о н/о -0.5 -6.7 63 -5 -5 999.9 998.8
14 13.02 СЗ 2
{7}
н/о н/о -0.2 -6.8 61 -3 -3 1002.0 1000.8
15 13.02 З 2
{7}
н/о н/о +0.3 -6.5 60 -3 -3 1003.6 1002.5
16 13.02 ЮЗ 2
{5}
н/о н/о +0.3 -6.3 61 -3 -3 1005.0 1003.9
17 13.02 З 3
{5}
н/о н/о +0.7 -4.9 66 -3 -3 1006.4 1005.3
18 13.02 З 1
{7}
н/о н/о +0.4 -5.2 66 -1 -1 1007.2 1006.0 -1.3 +0.9
19 13.02 ЮВ 1
{5}
н/о н/о +1.2 -5.0 63 -0 -0 1007.5 1006.4
20 13.02 ЮЗ 7
{11}
н/о н/о +1.6 -1.5 80 -5 -5 1007.1 1006.0
21 13.02 ЮЗ 6
{10}
н/о н/о +1.6 -1.3 81 -5 -5 1006.9 1005.8
22 13.02 ЮЗ 6
{9}
н/о н/о +1.7 -1.2 81 -4 -4 1006.5 1005.4
23 13.02 Ю 7
{9}
н/о н/о +1.6 +0.3 91 -5 -5 1005.7 1004.6
00 14.02 З 3
{11}
н/о н/о +1.3 +0.3 93 -3 -3 1005.2 1004.1
01 14.02 В 2
{7}
н/о н/о +0.6 0.0 96 -3 -3 1004.0 1002.9
02 14.02 Ю 9
{10}
н/о н/о +2.5 +1.2 91 -5 -5 1002.4 1001.3
03 14.02 ЮВ 6
{10}
н/о н/о +1.5 +0.5 93 -5 -5 1000.6 999.6
04 14.02 В 7
{10}
н/о н/о +1.1 +0.3 94 -6 -6 999.1 998.0
05 14.02 В 6
{10}
н/о н/о +1.0 +0.4 96 -6 -6 996.8 995.7
06 14.02 В 9
{12}
н/о н/о +1.2 +0.4 94 -6 -6 993.5 992.4 +0.3 +2.6
07 14.02 С 4
{15}
н/о н/о +3.2 +2.2 93 -2 -2 991.0 989.9
08 14.02 ЮЗ 9
{14}
н/о н/о +4.4 +3.8 96 -2 -2 988.6 987.6
09 14.02 ЮЗ 6
{16}
н/о н/о +5.0 +2.9 86 -0 -0 987.5 986.4
10 14.02 ЮЗ 7
{16}
н/о н/о +4.5 +2.5 87 -1 -1 987.9 986.9
11 14.02 Ю 13
{15}
н/о н/о +4.3 +2.8 90 -3 -3 985.5 984.5
12 14.02 ЮЗ 16
{21}
н/о н/о +4.9 +2.8 86 -3 -3 983.9 982.8
13 14.02 ЮЗ 16
{23}
н/о н/о +5.1 +1.8 79 -3 -3 983.0 981.9
14 14.02 ЮЗ 10
{20}
н/о н/о +5.4 -0.2 67 -1 -1 983.6 982.6
15 14.02 ЮЗ 10
{17}
н/о н/о +4.0 +1.2 82 -3 -3 984.7 983.7
16 14.02 ЮЗ 10
{19}
н/о н/о +4.1 +1.2 81 -3 -3 985.8 984.8
17 14.02 ЮЗ 11
{18}
н/о н/о +4.2 +0.4 76 -3 -3 986.6 985.6
18 14.02 З 10
{23}
н/о н/о +3.7 +0.2 78 -3 -3 987.6 986.6 +1.2 +5.7
19 14.02 З 10
{17}
н/о н/о +3.5 0.0 78 -3 -3 988.5 987.4
20 14.02 З 8
{16}
н/о н/о +3.1 0.0 80 -3 -3 989.6 988.5
21 14.02 З 8
{15}
н/о н/о +3.1 0.0 80 -3 -3 990.4 989.4
22 14.02 ЮЗ 8
{15}
н/о н/о +3.4 +0.5 81 -3 -3 991.1 990.0
23 14.02 З 10
{17}
н/о н/о +3.6 +0.8 82 -3 -3 991.7 990.6
00 15.02 З 11
{19}
н/о н/о +4.0 +0.9 80 -3 -3 992.9 991.8
01 15.02 З 10
{17}
н/о н/о +4.0 +1.1 81 -3 -3 994.9 993.8
02 15.02 З 8
{17}
н/о н/о +3.6 +0.8 82 -3 -3 996.7 995.6
03 15.02 ЮЗ 5
{16}
н/о н/о +3.3 +0.9 84 -2 -2 998.0 996.9
04 15.02 ЮЗ 3
{7}
н/о н/о +2.9 +1.1 88 -1 -1 998.6 997.5
05 15.02 С 2
{6}
н/о н/о +1.9 +0.9 93 -2 -2 999.5 998.4
06 15.02 З 4
{17}
н/о н/о +3.8 +1.0 82 -1 -1 1000.7 999.6 +1.9 +4.6
07 15.02 СЗ 5
{11}
н/о н/о +3.5 +0.4 80 -2 -2 1002.0 1000.9
08 15.02 ЮЗ 2
{7}
н/о н/о +3.3 -0.5 76 +1 +1 1003.6 1002.5
09 15.02 СЗ 3
{5}
н/о н/о +2.7 +0.3 84 -1 -1 1004.4 1003.3
10 15.02 З 2
{4}
н/о н/о +3.3 +0.4 81 0 0 1005.0 1003.9
11 15.02 З 2
{2}
н/о н/о +2.9 +0.6 85 -0 -0 1005.4 1004.3
12 15.02 ЮЗ 4
{11}
н/о н/о +2.5 +1.0 90 -2 -2 1005.7 1004.6
13 15.02 ЮЗ 2
{4}
н/о н/о +2.2 +1.2 93 -1 -1 1005.7 1004.6
14 15.02 З 1
{3}
н/о н/о +1.9 +1.2 95 0 0 1005.7 1004.6
15 15.02 СЗ 2
{3}
н/о н/о +1.3 +0.7 96 -2 -2 1005.2 1004.1
16 15.02 С 2
{3}
н/о н/о +1.5 +0.9 96 -2 -2 1004.2 1003.1
17 15.02 Ю 5
{6}
н/о н/о +2.6 +1.9 95 -3 -3 1002.8 1001.7
18 15.02 Ю 6
{7}
н/о н/о +1.9 +0.9 93 -4 -4 1001.7 1000.7 +1.2 +3.9
19 15.02 Ю 5
{8}
н/о н/о +1.3 +0.6 95 -5 -5 1000.2 999.1
20 15.02 В 5
{8}
н/о н/о +0.8 +0.2 96 -5 -5 998.4 997.3
21 15.02 В 11
{15}
н/о н/о +1.2 +0.8 97 -7 -7 995.3 994.2
22 15.02 Ю 8
{14}
н/о н/о +3.9 +3.0 94 -3 -3 994.2 993.1
23 15.02 ЮЗ 8
{11}
н/о н/о +4.1 +3.4 95 -2 -2 991.8 990.7
00 16.02 ЮЗ 11
{16}
н/о н/о +4.7 +2.7 87 -2 -2 989.2 988.1
01 16.02 ЮЗ 13
{18}
н/о н/о +4.6 +3.0 89 -3 -3 986.9 985.8
02 16.02 ЮЗ 19
{23}
н/о н/о +4.7 +3.2 90 -4 -4 984.0 983.0
03 16.02 Ю 20
{26}
н/о н/о +5.4 +3.7 89 -3 -3 981.2 980.1
04 16.02 ЮЗ 24
{32}
н/о н/о +4.9 +1.6 79 -4 -4 978.3 977.2
05 16.02 ЮЗ 27
{33}
н/о н/о +3.7 +1.9 88 -6 -6 974.7 973.7
06 16.02 ЮЗ 22
{35}
н/о н/о +4.1 +1.5 83 -5 -5 974.9 973.9 +0.7 +5.8
07 16.02 ЮЗ 25
{34}
н/о н/о +4.0 +0.5 78 -5 -5 974.2 973.1
08 16.02 ЮЗ 25
{34}
н/о н/о +3.4 +1.1 85 -6 -6 972.7 971.6
09 16.02 ЮЗ 23
{32}
н/о н/о +3.4 +1.8 89 -6 -6 971.8 970.8
10 16.02 ЮЗ 10
{27}
н/о н/о +2.8 +1.2 89 -5 -5 972.6 971.5
11 16.02 З 10
{18}
н/о н/о +4.0 +1.4 83 -3 -3 973.9 972.8
12 16.02 ЮЗ 8
{34}
н/о н/о +3.2 +1.3 87 -3 -3 975.8 974.7
13 16.02 СЗ 12
{25}
н/о н/о +3.6 +0.5 80 -4 -4 979.4 978.3
14 16.02 СЗ 15
{31}
н/о н/о +1.8 -0.8 83 -7 -7 984.2 983.1
15 16.02 СЗ 13
{29}
н/о н/о +1.0 -0.9 87 -8 -8 987.5 986.5
16 16.02 СЗ 9
{31}
н/о н/о +1.0 -1.1 86 -7 -7 991.4 990.3
17 16.02 СЗ 11
{27}
н/о н/о +2.2 -3.9 64 -5 -5 993.6 992.5
18 16.02 СЗ 7
{31}
н/о н/о +2.8 -3.9 61 -3 -3 996.7 995.6 +0.5 +4.3
19 16.02 СЗ 8
{18}
н/о н/о +3.2 -4.2 58 -3 -3 997.9 996.9
20 16.02 СЗ 9
{19}
н/о н/о +2.9 -5.4 54 -3 -3 1000.2 999.1
21 16.02 СЗ 7
{18}
н/о н/о +3.1 -5.8 52 -2 -2 1001.6 1000.5
22 16.02 С 7
{18}
н/о н/о +2.5 -6.6 51 -3 -3 1003.2 1002.1
23 16.02 СЗ 7
{16}
н/о н/о +1.3 -3.9 68 -5 -5 1004.9 1003.8
00 17.02 СЗ 6
{19}
н/о н/о +1.9 -3.2 69 -4 -4 1006.2 1005.1
01 17.02 СЗ 6
{15}
н/о н/о +2.1 -4.2 63 -4 -4 1007.6 1006.5
02 17.02 СЗ 7
{13}
н/о н/о +1.8 -2.9 71 -4 -4 1008.9 1007.8
03 17.02
{13}
н/о н/о +0.9 -3.5 72 1009.8 1008.7
04 17.02 З 2
{10}
н/о н/о +0.5 -2.2 82 -3 -3 1011.0 1009.9
05 17.02 З 2
{4}
н/о н/о +0.2 -2.0 85 -3 -3 1011.5 1010.4
06 17.02 С 2
{15}
н/о н/о -0.3 -2.2 87 -4 -4 1012.0 1010.9 -0.6 +3.3
07 17.02
{2}
н/о н/о -0.8 -3.2 84 1012.9 1011.8
08 17.02 н/о н/о -0.5 -3.2 82 1013.5 1012.3
09 17.02 н/о н/о -0.5 -3.2 82 1014.2 1013.1
10 17.02 н/о н/о +2.0 -3.1 69 1014.5 1013.4
11 17.02 С 1
{2}
н/о н/о +0.9 -2.8 76 -1 -1 1014.8 1013.7
12 17.02 С 2 н/о н/о +0.2 -2.8 80 -3 -3 1014.7 1013.6
13 17.02 С 1
{3}
н/о н/о +0.7 -3.2 75 -1 -1 1014.6 1013.5
14 17.02 З 2
{11}
н/о н/о +0.9 -1.6 83 -3 -3 1014.5 1013.4
15 17.02 ЮЗ 5
{9}
н/о н/о +1.9 0.0 87 -4 -4 1013.9 1012.7
16 17.02 Ю 7
{12}
н/о н/о +0.6 -0.2 94 -6 -6 1013.7 1012.6
17 17.02 Ю 5
{9}
н/о н/о +1.3 -0.9 85 -4 -4 1013.2 1012.0
18 17.02 ЮВ 5
{12}
н/о н/о +1.9 -1.9 76 -4 -4 1012.3 1011.2 -1.4 +2.4
19 17.02 ЮВ 7
{9}
н/о н/о +1.9 -1.7 77 -4 -4 1011.4 1010.3
20 17.02 В 3
{11}
н/о н/о +0.9 -0.8 88 -4 -4 1010.9 1009.8
21 17.02 СВ 6
{10}
н/о н/о +1.0 -1.2 85 -5 -5 1010.3 1009.2
22 17.02 СВ 6
{9}
н/о н/о +1.3 -2.4 76 -5 -5 1009.8 1008.7
23 17.02 СВ 6
{8}
н/о н/о +1.1 -3.4 72 -5 -5 1008.9 1007.8
00 18.02 СВ 7
{12}
н/о н/о +1.0 -4.8 65 -5 -5 1007.7 1006.6
01 18.02 СВ 7
{10}
н/о н/о +0.8 -5.2 64 -6 -6 1006.6 1005.5
02 18.02 СВ 6
{9}
н/о н/о +0.9 -4.9 65 -5 -5 1005.6 1004.5
03 18.02 СВ 7
{9}
н/о н/о +0.9 -5.1 64 -6 -6 1003.9 1002.8
04 18.02 СВ 7 н/о н/о +0.8 -5.8 61 -6 -6 1002.9 1001.8
05 18.02 В 6
{10}
н/о н/о +1.0 -6.5 57 -5 -5 1001.3 1000.2
06 18.02 В 7
{11}
н/о н/о +1.1 -5.8 60 -5 -5 999.9 998.8 +0.7 +2.0
07 18.02 В 4
{10}
н/о н/о -0.5 -3.0 83 -6 -6 999.2 998.1

 

Местоположение метеостанции Сволваер аэропорт (Норвегия): широта 68.25 долгота 14.67 высота над уровнем моря 9 м.

В архиве по умолчанию представлена погода в Сволваер аэропорту за последнюю неделю. Архивные данные за месяц целиком и за предыдущие месяцы, начиная с января 2011 года, Вы можете получить, выбрав интересующий диапазон дат из раскрывающегося списка и нажав кнопку "Ввод!".


*Определитесь, кто Вы:
робот инопланетянин человек

Внимание! Время в таблицах - всемирное. Для получения местного времени необходимо прибавить поправку, которая равна 1 ч.

Смотрите также архив погоды в соседних городах и на ближайших метеорологических станциях:

Погода на Маяке Skrova (Норвегия) (11 км)
Погода в Стокмаркнес аэропорту (Норвегия) (40 км)
Погода в Бё (Норвегия) (41 км)
Погода в Лекнесе (Норвегия) (45 км)
Погода на Маяке Rotvaer (Норвегия) (54 км)
Погода в Сортланне (Норвегия) (59 км)
Погода в Драге (Норвегия) (62 км)
Погода в Аэропорту Харстад/Нарвик (Норвегия) (87 км)
Погода в Харстаде (Норвегия) (97 км)
Погода в Хеллигвере (Норвегия) (100 км)

Пояснения к столбцам:

Ветер - указаны скорость ветра в м/с - средняя за 10 мин, порывы в срок и между сроками (в фигурных скобках) и направление, откуда дует ветер: С - северный, СВ - северо-восточный, В - восточный, ЮВ - юго-восточный, Ю - южный, ЮЗ - юго-западный, З - западный, СЗ - северо-западный.
Видимость - горизонтальная дальность видимости в метрах или километрах. При видимости от 1 до 10 км при отсутствии осадков обычно наблюдается дымка, при ухудшении видимости до 1 км и менее - туман. В сухую погоду видимость может ухудшаться дымом, пылью или мглою.
Явления - указаны атмосферные явления, наблюдавшиеся в срок или в последний час перед сроком; фигурными скобками обозначены явления, наблюдавшиеся между сроками (за 1-3 часа до срока); квадратными скобками обозначены град или гололедные отложения с указанием их диаметра в мм.
Облачность - указаны через наклонную черту общая и нижняя облачность в баллах и высота нижней границы облаков в метрах; квадратными скобками обозначены формы облаков: Ci - перистые, Cs - перисто-слоистые, Cc - перисто-кучевые, Ac - высококучевые, As - высокослоистые, Sc - слоисто-кучевые, Ns - слоисто-дождевые, Cu - кучевые, Cb - кучево-дождевые. Подробнее классификацию облаков см. в Атласе облаков (PDF).
T - Температура воздуха - температура, измеренная на высоте 2 м над землей.
Td - Температура точки росы - температура, при понижении до которой содержащийся в воздухе водяной пар достигнет насыщения.
f - Относительная влажность воздуха - влажноcть воздуха, измеренная на высоте 2 м над землей.
Te - Эффективная температура - температура, которую ощущает одетый по сезону человек в тени. Характеристика душности погоды. При расчете учитывается влияние влажности воздуха и скорости ветра на теплоощущения человека.
Tes - Эффективная температура на солнце - температура, которую ощущает человек, с поправкой на солнечный нагрев. Характеристика знойности погоды. Зависит от высоты солнца над горизонтом, облачности и скорости ветра. Ночью, в пасмурную погоду, а также при ветре 12 м/с и более поправка равна нулю.
P - Атмосферное давление - приведенное к уровню моря атмосферное давление.
Po - Атмосферное давление - измеренное на уровне метеостанции атмосферное давление.
Tmin - Минимальная температура - минимум температуры воздуха на высоте 2 м над землей.
Tmax - Максимальная температура - максимум температуры воздуха на высоте 2 м над землей.
R - Количество осадков - Количество выпавших осадков за период времени, мм. При наведении курсора мыши на число - период времени, за который выпало указанное количество осадков.
R24 - Количество осадков - Количество выпавших осадков за 24 часа, мм.
S - Снежный покров - Высота снежного покрова, см. При наведении курсора мыши на число - состояние снежного покрова и степень покрытия местности в баллах.